Regional Weather Roundup
Issued by NWS

Home | Current Version | Previous Version | Graphics & Text | Print | Product List | Glossary On
Versions: 1 2 3 4 5 6 7 8 9 10 11 12 13 14 15 16 17 18 19 20 21 22 23 24 25 26 27
000
ASUS45 KSLC 191710
RWRUT

UTAH REGIONAL WEATHER ROUNDUP
NATIONAL WEATHER SERVICE SALT LAKE CITY UT
1100 AM MDT THU OCT 19 2017

UTZ001>011-023>025-191800-

NORTHERN UTAH

CITY           SKY/WX    TMP DP  RH WIND       PRES   REMARKS
BRIGHAM CITY   SUNNY     51  28  41 CALM      30.01F
DUGWAY         MOSUNNY   59  17  19 W5        30.08F
HILL AFB       SUNNY     55  19  24 E16       30.01F
LOGAN          SUNNY     49  26  41 N3        30.02F
OGDEN          SUNNY     59  21  23 CALM      30.01S
SALT LAKE CITY MOSUNNY   62  27  26 E6        29.99F
TOOELE VALLEY  SUNNY     55  36  47 N6        30.01S
WENDOVER       SUNNY     49  23  36 SE6       30.01F
WEST JORDAN    SUNNY     63  27  25 S14       30.01S

$$

UTZ011>015-024>027-191800-

CENTRAL/NORTHEAST UTAH

CITY           SKY/WX    TMP DP  RH WIND       PRES   REMARKS
PROVO AIRPORT  MOSUNNY   52  38  58 W6        30.05S
MOAB/CANYONLAN PTSUNNY   62  16  16 S3        30.06F
DELTA          MOSUNNY   55  27  33 NW5       30.03R
PRICE          PTSUNNY   56  18  22 CALM      30.11S
RICHFIELD      SUNNY     57  34  41 CALM      30.06F
ROOSEVELT      CLOUDY    54  21  28 CALM      30.13F
VERNAL         CLOUDY    55  18  23 SE5       30.11F

$$

UTZ013>016-019>022-027-191800-

SOUTHERN UTAH

CITY           SKY/WX    TMP DP  RH WIND       PRES   REMARKS
BRYCE CANYON   PTSUNNY   53  38  56 CALM      30.20F
CEDAR CITY     CLOUDY    59  46  62 CALM      30.05F
MILFORD        MOSUNNY   63  41  44 S10       30.02F
ST GEORGE      MOSUNNY   64  32  30 CALM      29.96F
HANKSVILLE     CLOUDY    55  21  26 CALM      30.09S
KANAB          MOSUNNY   72  32  23 E10       30.08F
BLANDING         N/A     60  24  24 CALM      30.22S

$$

REGIONAL REPORTS     COLORADO/ARIZONA

CITY           SKY/WX    TMP DP  RH WIND       PRES   REMARKS
CRAIG, CO      CLOUDY    53  22  29 CALM      30.13F
GRAND JUNCTION CLOUDY    60  18  19 SE9       30.09F
RIFLE, CO      CLOUDY    55  16  21 CALM      30.14F
MONTROSE, CO   SUNNY     60  19  20 W3        30.15F
CORTEZ, CO     MOSUNNY   62  27  26 E3        30.15F
COLORADO CITY    N/A     77  37  24 SE6       30.06F
PAGE, AZ       PTSUNNY   62  35  36 N3        30.05F
GRAND CANYON   MOSUNNY   57  45  64 CALM      30.16F
KINGMAN, AZ    MOSUNNY   79  34  19 SW9       29.96S
FLAGSTAFF, AZ  MOSUNNY   65  30  27 SW9       30.18F

$$

REGIONAL REPORTS    NEVADA/IDAHO/WYOMING

CITY           SKY/WX    TMP DP  RH WIND       PRES   REMARKS
LAS VEGAS, NV  PTSUNNY   76  27  16 N3        29.89S
ELY, NY        SUNNY     62  11  13 S13       30.06F
ELKO, NV       SUNNY     42  15  33 CALM      30.00F
POCATELLO, ID  SUNNY     56  28  34 N3        29.96F
BURLEY, ID     SUNNY     62  24  23 S13       29.91F
FORT BRIDGER,    N/A     50  16  26 CALM      30.14F
EVANSTON, WY   SUNNY     56  14  19 SW7       30.11F
ROCK SPRINGS,  CLOUDY    49  14  24 E3        30.12F
KEMMERER, WY   SUNNY     52  14  22 CALM      30.13F

$$




USA.gov is the U.S. government's official web portal to all federal, state and local government web resources and services.